This demonstration page uses our WeatherBlox Daily Observations layout. Learn more.

Left ArrowRight Arrow

39.92423, -83.80882

Hourly Observations for February 25, 2019

Temp ( °F °C ) Dew Point ( °F °C ) Humidity (%) Winds ( mph kmh ) Pressure ( in mb ) Visibility ( mi km ) Precip ( " mm )
12:56 am 00:56 Clear 26 -3.3 17 -8.3 69 69 W 21 33 30.1 1019 10 16.0934 N/A
1:56 am 01:56 Clear 25 -3.9 17 -8.3 72 72 W 24 39 30.12 1020 10 16.0934 N/A
2:56 am 02:56 Clear 25 -3.9 15 -9.4 66 66 W 26 43 30.15 1021 10 16.0934 N/A
3:56 am 03:56 Clear 23 -5 12 -11.1 63 63 W 28 44 30.17 1022 10 16.0934 N/A
4:56 am 04:56 Clear 22 -5.6 10 -12.2 60 60 W 18 30 30.22 1023 10 16.0934 N/A
5:56 am 05:56 Clear 21 -6.1 10 -12.2 62 62 W 23 37 30.27 1025 10 16.0934 N/A
6:56 am 06:56 Clear 20 -6.7 10 -12.2 65 65 W 26 43 30.3 1026 10 16.0934 N/A
7:56 am 07:56 Sunny 20 -6.7 8 -13.3 60 60 W 21 33 30.34 1027 10 16.0934 N/A
8:56 am 08:56 Sunny 22 -5.6 9 -12.8 57 57 W 23 37 30.37 1028 10 16.0934 N/A
9:56 am 09:56 Sunny 25 -3.9 10 -12.2 53 53 W 16 26 30.4 1030 10 16.0934 N/A
10:56 am 10:56 Sunny 27 -2.8 10 -12.2 49 49 W 21 33 30.42 1030 10 16.0934 N/A
11:56 am 11:56 Sunny 29 -1.7 12 -11.1 49 49 W 23 37 30.44 1031 10 16.0934 N/A
12:56 pm 12:56 Sunny 31 -0.6 13 -10.6 47 47 W 18 30 30.44 1031 10 16.0934 N/A
1:56 pm 13:56 Sunny 32 undefined 11 -11.7 41 41 W 17 28 30.43 1031 10 16.0934 N/A
2:56 pm 14:56 Sunny 34 1.1 12 -11.1 40 40 W 16 26 30.43 1031 10 16.0934 N/A
3:56 pm 15:56 Sunny 34 1.1 11 -11.7 38 38 WNW 17 28 30.43 1030 10 16.0934 N/A
4:56 pm 16:56 Sunny 34 1.1 11 -11.7 38 38 W 13 20 30.45 1031 10 16.0934 N/A
5:56 pm 17:56 Partly Cloudy 33 0.6 11 -11.7 40 40 WSW 8 13 30.44 1031 10 16.0934 N/A
6:56 pm 18:56 Clear 30 -1.1 17 -8.3 58 58 W 7 11 30.45 1031 10 16.0934 N/A
7:56 pm 19:56 Clear 29 -1.7 16 -8.9 58 58 W 6 9 30.45 1031 10 16.0934 N/A
8:56 pm 20:56 Cloudy 29 -1.7 17 -8.3 61 61 WNW 3 6 30.45 1031 10 16.0934 N/A
9:56 pm 21:56 Mostly Cloudy 28 -2.2 13 -10.6 53 53 N N/A 30.44 1031 10 16.0934 N/A
10:56 pm 22:56 Cloudy 26 -3.3 21 -6.1 81 81 N N/A 30.45 1031 10 16.0934 N/A
11:56 pm 23:56 Cloudy 27 -2.8 19 -7.2 72 72 N N/A 30.45 1031 10 16.0934 N/A

Powered by AerisWeather